Location: Castro Valley
(37.6941°N, 122.0863°W)
Time: 13:18:58
(UTC+00:00)

Cosmos 2263 Rocket - Pass Details

Date: 19 May 2025
Orbit: 821 x 849 km, 71.0° (Epoch: 15 June)

Event Time Altitude Azimuth Distance (km) Brightness Sun altitude
Exits shadow 12:06:51 11° 233° (SW) 2,348 3.8 -9.1°
Maximum altitude 12:11:45 37° 299° (WNW) 1,271 2.9 -8.3°
Drops below altitude 10° 12:16:59 10° 6° (N) 2,467 5.2 -7.4°
Sets 12:19:38 0° 15° (NNE) 3,409 6.1 -7.0°
